Brandon, TX

12:39 PM CDT on September 25, 2016 (GMT -0500)
Hillsboro

Weather History for KINJ - February, 2014

Change the Weather History Date:

Monday, February 10, 2014

  Actual Average (KACT) Record (KACT)
Temperature  
Mean Temperature 36 °F 50 °F  
Max Temperature 40 °F 61 °F 86 °F (1954)
Min Temperature 31 °F 39 °F 15 °F (2011)
Degree Days  
Heating Degree Days 30 15  
Month to date heating degree days 162  
Since 1 July heating degree days 1570  
Cooling Degree Days 0 0  
Month to date cooling degree days 0  
Year to date cooling degree days 3  
Moisture  
Dew Point 32 °F    
Average Humidity 93    
Maximum Humidity 96    
Minimum Humidity 88    
Precipitation  
Precipitation 0.00 in 0.10 in 1.53 in (1998)
Month to date precipitation 0.84  
Year to date precipitation 2.96  
Snow  
Snow 0.00 in 0.00 in 3.00 in (1940)
Month to date snowfall 0.1  
Since 1 July snowfall 0.5  
Snow Depth -    
Sea Level Pressure  
Sea Level Pressure 30.19 in    
Wind  
Wind Speed 15 mph (NNW)    
Max Wind Speed 21 mph    
Max Gust Speed 24 mph    
Visibility 3 miles    
Events      
T = Trace of Precipitation, MM = Missing Value Source: NWS Daily Summary

Daily Weather History Graph

Daily Weather History Graph

Search for Another Location

Airport or City:

Trip Planner

Search our weather history database for the weather conditions in past years. The results will help you decide how hot, cold, wet, or windy it might be!

Date:

Astronomy

Feb. 10, 2014 Rise Set
Actual Time 7:15 AM CST 6:10 PM CST
Civil Twilight 6:49 AM CST 6:35 PM CST
Nautical Twilight 6:21 AM CST 7:04 PM CST
Astronomical Twilight 5:52 AM CST 7:33 PM CST
Moon 2:46 PM CST (2/10) 4:03 AM CST (2/10)
Length of Visible Light 11h 45m
Length of Day
10h 55m
Waxing Gibbous, 85% of the Moon is Illuminated
Feb 10
Waxing Gibbous
Feb 14
Full
Feb 22
Last Quarter
Mar 1
New
Mar 8
First Quarter

Hourly Weather History & Observations

Time (CST) Temp. Windchill Dew Point Humidity Pressure Visibility Wind Dir Wind Speed Gust Speed Precip Events Conditions
12:15 AM 40.3 °F 34.4 °F 36.9 °F 88% 30.12 in 5.0 mi NNW 9.2 mph - N/A   Overcast
12:35 AM 40.3 °F 32.6 °F 37.0 °F 88% 30.10 in 5.0 mi North 13.8 mph 17.3 mph N/A   Overcast
12:55 AM 40.1 °F 32.4 °F 36.7 °F 88% 30.11 in 5.0 mi North 13.8 mph - N/A   Overcast
1:15 AM 39.2 °F 31.2 °F 36.0 °F 88% 30.11 in 4.0 mi North 13.8 mph - N/A   Overcast
1:35 AM 39.0 °F 31.4 °F 36.0 °F 89% 30.11 in 2.5 mi North 12.7 mph 18.4 mph N/A   Overcast
1:55 AM 38.5 °F 31.1 °F 35.8 °F 90% 30.11 in 2.0 mi North 11.5 mph 16.1 mph N/A   Overcast
2:15 AM 38.3 °F 31.4 °F 35.6 °F 90% 30.12 in 2.0 mi NNW 10.4 mph - N/A   Overcast
2:35 AM 37.8 °F 30.7 °F 35.6 °F 92% 30.12 in 1.8 mi NNW 10.4 mph - N/A   Overcast
2:55 AM 37.6 °F 28.8 °F 35.6 °F 93% 30.13 in 1.8 mi NNW 15.0 mph 18.4 mph N/A   Overcast
3:15 AM 37.2 °F 28.3 °F 34.9 °F 91% 30.14 in 1.8 mi NNW 15.0 mph - N/A   Overcast
3:35 AM 37.0 °F 28.1 °F 35.1 °F 93% 30.14 in 2.0 mi NNW 15.0 mph - N/A   Overcast
3:55 AM 36.7 °F 27.6 °F 34.7 °F 93% 30.14 in 2.5 mi NNW 15.0 mph 20.7 mph N/A   Overcast
4:15 AM 36.5 °F 26.7 °F 34.5 °F 93% 30.13 in 2.5 mi North 17.3 mph 23.0 mph N/A   Overcast
4:35 AM 36.5 °F 26.3 °F 34.3 °F 92% 30.14 in 3.0 mi North 18.4 mph 21.9 mph N/A   Overcast
4:55 AM 36.3 °F 26.8 °F 34.3 °F 93% 30.14 in 4.0 mi NNW 16.1 mph 23.0 mph N/A   Overcast
5:15 AM 36.0 °F 25.3 °F 34.0 °F 93% 30.15 in 4.0 mi NNW 19.6 mph 24.2 mph N/A   Overcast
5:35 AM 35.8 °F 27.3 °F 33.8 °F 92% 30.15 in 4.0 mi North 12.7 mph - N/A   Overcast
5:55 AM 35.6 °F 25.9 °F 33.8 °F 93% 30.17 in 4.0 mi NNW 16.1 mph - N/A   Overcast
6:15 AM 35.2 °F 25.4 °F 33.3 °F 92% 30.17 in 3.0 mi North 16.1 mph - N/A   Overcast
6:35 AM 35.2 °F 24.7 °F 33.3 °F 92% 30.18 in 3.0 mi North 18.4 mph - N/A   Overcast
6:55 AM 35.2 °F 25.4 °F 33.3 °F 92% 30.18 in 3.0 mi North 16.1 mph 24.2 mph N/A   Overcast
7:15 AM 34.9 °F 24.6 °F 32.9 °F 92% 30.18 in 3.0 mi North 17.3 mph 24.2 mph N/A   Overcast
7:35 AM 34.7 °F 24.7 °F 32.9 °F 93% 30.20 in 3.0 mi NNW 16.1 mph 23.0 mph N/A   Overcast
7:55 AM 34.7 °F 24.0 °F 32.9 °F 93% 30.20 in 3.0 mi North 18.4 mph 23.0 mph N/A   Overcast
8:15 AM 34.3 °F 23.9 °F 32.5 °F 93% 30.21 in 2.5 mi North 17.3 mph 24.2 mph N/A   Overcast
8:35 AM 34.5 °F 23.1 °F 32.7 °F 93% 30.22 in 3.0 mi North 20.7 mph - N/A   Overcast
8:55 AM 34.7 °F 25.1 °F 32.9 °F 93% 30.23 in 3.0 mi North 15.0 mph - N/A   Overcast
9:15 AM 34.7 °F 23.7 °F 32.9 °F 93% 30.23 in 2.5 mi NNW 19.6 mph 23.0 mph N/A   Overcast
9:35 AM 34.3 °F 23.2 °F 32.5 °F 93% 30.23 in 2.0 mi North 19.6 mph - N/A   Overcast
9:55 AM 34.3 °F 23.9 °F 32.5 °F 93% 30.24 in 1.8 mi North 17.3 mph 21.9 mph N/A   Overcast
10:15 AM 34.3 °F 24.6 °F 32.5 °F 93% 30.25 in 1.5 mi North 15.0 mph 19.6 mph N/A   Overcast
10:35 AM 34.5 °F 24.5 °F 32.7 °F 93% 30.26 in 1.5 mi North 16.1 mph - N/A   Overcast
10:55 AM 34.3 °F 23.9 °F 32.5 °F 93% 30.25 in 1.8 mi North 17.3 mph 24.2 mph N/A   Overcast
11:15 AM 34.7 °F 24.0 °F 32.9 °F 93% 30.25 in 1.5 mi North 18.4 mph 21.9 mph N/A   Overcast
11:35 AM 34.9 °F 26.2 °F 33.1 °F 93% 30.25 in 1.8 mi North 12.7 mph 19.6 mph N/A   Overcast
11:55 AM 34.7 °F 24.0 °F 32.9 °F 93% 30.25 in 1.8 mi NNW 18.4 mph 23.0 mph N/A   Overcast
12:15 PM 34.2 °F 24.0 °F 32.5 °F 94% 30.24 in 1.8 mi North 16.1 mph - N/A   Overcast
12:35 PM 34.2 °F 23.6 °F 32.5 °F 94% 30.23 in 1.8 mi NNW 17.3 mph 21.9 mph N/A   Overcast
12:55 PM 34.0 °F 23.8 °F 32.2 °F 93% 30.22 in 1.8 mi North 16.1 mph - N/A   Overcast
1:15 PM 33.8 °F 22.8 °F 32.2 °F 94% 30.21 in 1.8 mi NNW 18.4 mph - N/A   Overcast
1:35 PM 34.0 °F 23.4 °F 32.4 °F 94% 30.20 in 2.0 mi North 17.3 mph - N/A   Overcast
1:55 PM 33.8 °F 23.9 °F 32.0 °F 93% 30.19 in 1.8 mi North 15.0 mph 19.6 mph N/A   Overcast
2:15 PM 33.8 °F 23.9 °F 32.2 °F 94% 30.19 in 2.5 mi North 15.0 mph - N/A   Overcast
2:35 PM 33.6 °F 22.9 °F 32.0 °F 94% 30.18 in 2.5 mi North 17.3 mph - N/A   Overcast
2:55 PM 33.1 °F 22.2 °F 32.0 °F 96% 30.18 in 2.5 mi NNW 17.3 mph - N/A   Overcast
3:15 PM 32.9 °F 22.4 °F 32.0 °F 96% 30.18 in 2.5 mi North 16.1 mph - N/A   Overcast
3:35 PM 32.9 °F 22.8 °F 31.8 °F 96% 30.18 in 2.5 mi North 15.0 mph 20.7 mph N/A   Overcast
3:55 PM 32.9 °F 22.0 °F 31.6 °F 95% 30.19 in 2.0 mi North 17.3 mph - N/A   Overcast
4:15 PM 32.9 °F 22.8 °F 31.6 °F 95% 30.18 in 3.0 mi North 15.0 mph - N/A   Overcast
4:35 PM 32.9 °F 23.2 °F 31.5 °F 94% 30.19 in 3.0 mi NNW 13.8 mph - N/A   Overcast
4:55 PM 32.2 °F 22.3 °F 31.1 °F 96% 30.19 in 2.5 mi North 13.8 mph - N/A   Overcast
5:15 PM 32.0 °F 21.2 °F 30.7 °F 95% 30.19 in 3.0 mi North 16.1 mph 21.9 mph N/A   Overcast
5:35 PM 32.0 °F 22.1 °F 30.9 °F 96% 30.19 in 4.0 mi North 13.8 mph 19.6 mph N/A   Overcast
5:55 PM 32.0 °F 22.1 °F 30.7 °F 95% 30.20 in 4.0 mi NNW 13.8 mph - N/A   Overcast
6:15 PM 32.0 °F 21.6 °F 30.2 °F 93% 30.20 in 3.0 mi NNW 15.0 mph - N/A   Overcast
6:35 PM 31.8 °F 21.0 °F 30.2 °F 94% 30.20 in 3.0 mi North 16.1 mph 20.7 mph N/A   Overcast
6:55 PM 32.0 °F 23.0 °F 30.2 °F 93% 30.21 in 4.0 mi NNW 11.5 mph - N/A   Overcast
7:15 PM 31.8 °F 21.0 °F 30.2 °F 94% 30.21 in 3.0 mi North 16.1 mph 21.9 mph N/A   Overcast
7:35 PM 31.8 °F 21.0 °F 30.2 °F 94% 30.21 in 4.0 mi North 16.1 mph - N/A   Overcast
7:55 PM 31.8 °F 21.4 °F 30.2 °F 94% 30.21 in 3.0 mi North 15.0 mph - N/A   Overcast
8:15 PM 31.8 °F 21.0 °F 30.2 °F 94% 30.23 in 2.5 mi North 16.1 mph - N/A   Overcast
8:35 PM 31.5 °F 19.8 °F 29.8 °F 94% 30.23 in 2.5 mi North 18.4 mph 24.2 mph N/A   Overcast
8:55 PM 31.5 °F 21.4 °F 29.8 °F 94% 30.24 in 2.0 mi North 13.8 mph - N/A   Overcast
9:15 PM 31.5 °F 20.9 °F 29.8 °F 94% 30.25 in 2.5 mi NNW 15.0 mph - N/A   Overcast
9:35 PM 31.5 °F 21.4 °F 29.8 °F 94% 30.24 in 3.0 mi North 13.8 mph - N/A   Overcast
9:55 PM 31.1 °F 19.7 °F 29.7 °F 94% 30.24 in 3.0 mi North 17.3 mph - N/A   Overcast
10:15 PM 31.3 °F 22.7 °F 29.7 °F 94% 30.25 in 3.0 mi NNW 10.4 mph - N/A   Overcast
10:35 PM 31.1 °F 20.9 °F 29.7 °F 94% 30.25 in 3.0 mi North 13.8 mph 21.9 mph N/A   Overcast
10:55 PM 31.1 °F 19.7 °F 29.3 °F 93% 30.24 in 2.5 mi North 17.3 mph - N/A   Overcast
11:15 PM 31.1 °F 20.9 °F 29.7 °F 94% 30.25 in 3.0 mi North 13.8 mph 18.4 mph N/A   Overcast
11:35 PM 31.5 °F 21.4 °F 29.8 °F 94% 30.25 in 3.0 mi North 13.8 mph 18.4 mph N/A   Overcast
11:55 PM 31.1 °F 21.4 °F 29.7 °F 94% 30.25 in 3.0 mi North 12.7 mph 19.6 mph N/A   Overcast